S55G-5 Weather Reports


time (UTC)temp
C
wind
direction
speed
KPH
gust
KPH
rain 1hr
cm
rain 24hr
cm
rain mn
cm
humidity
%
barometer
mb
20260508000003 10 22 1.6 3.2 0.00 0.00 0.00 96 1016.8
20260507235617 10 32 3.2 3.2 0.00 0.00 0.00 96 1016.8
20260507234503 10 107 1.6 3.2 0.00 0.00 0.00 96 1016.9
20260507233603 10 135 0.0 3.2 0.00 0.00 0.00 96 1017.0
20260507232703 10 135 0.0 3.2 0.00 0.00 0.00 95 1017.2
20260507232016 10 136 0.0 3.2 0.00 0.00 0.00 95 1017.0
20260507230903 10 305 0.0 3.2 0.00 0.00 0.00 95 1017.1
20260507230004 10 22 0.0 3.2 0.00 0.00 0.00 94 1016.8
20260507225403 10 25 0.0 3.2 0.00 0.00 0.00 94 1017.1
20260507224503 11 44 1.6 3.2 0.00 0.00 0.00 92 1016.9
20260507223603 11 7 0.0 3.2 0.00 0.00 0.00 92 1017.0
20260507222703 11 14 1.6 3.2 0.00 0.00 0.00 92 1017.1
20260507221803 11 360 0.0 3.2 0.00 0.00 0.00 93 1017.1
20260507220903 11 22 0.0 3.2 0.00 0.00 0.00 93 1017.2
20260507220003 11 54 0.0 3.2 0.00 0.00 0.00 93 1017.1
20260507215403 11 69 0.0 6.4 0.00 0.00 0.00 93 1017.0
20260507214503 12 67 0.0 3.2 0.00 0.00 0.00 94 1016.9
20260507213603 11 67 0.0 3.2 0.00 0.00 0.00 94 1017.1
20260507212703 11 72 0.0 3.2 0.00 0.00 0.00 94 1017.0
20260507211803 11 136 3.2 3.2 0.00 0.00 0.00 94 1016.9
20260507210903 11 116 0.0 3.2 0.00 0.00 0.00 94 1017.0
20260507210003 11 155 0.0 3.2 0.00 0.00 0.00 94 1016.7
20260507205618 11 192 1.6 3.2 0.00 0.00 0.00 94 1016.7
20260507204717 12 328 0.0 3.2 0.00 0.00 0.00 95 1016.6
20260507203603 11 67 0.0 3.2 0.00 0.00 0.00 95 1016.6
20260507202703 11 67 0.0 3.2 0.00 0.00 0.00 94 1016.5
20260507201803 11 57 0.0 3.2 0.00 0.00 0.00 94 1016.3
20260507200903 11 41 1.6 3.2 0.00 0.00 0.00 93 1016.3
20260507200218 12 19 1.6 3.2 0.00 0.00 0.00 93 1016.0
20260507195403 12 322 1.6 3.2 0.00 0.00 0.00 93 1016.0
20260507194503 12 292 0.0 3.2 0.00 0.00 0.00 92 1015.9
20260507193603 12 55 3.2 3.2 0.00 0.00 0.00 92 1016.0
20260507192918 13 67 0.0 3.2 0.00 0.00 0.00 92 1015.6
20260507191803 13 0 0.0 0.0 0.00 0.00 0.00 91 1015.6
20260507190903 13 66 0.0 3.2 0.00 0.00 0.00 90 1015.4
20260507190004 13 21 3.2 3.2 0.00 0.00 0.00 89 1015.4
20260507185403 13 331 0.0 3.2 0.00 0.00 0.00 88 1015.3
20260507184503 14 306 0.0 3.2 0.00 0.00 0.00 87 1015.0
20260507183603 14 62 1.6 3.2 0.00 0.00 0.00 86 1015.1
20260507182703 15 56 3.2 3.2 0.00 0.00 0.00 84 1015.0
20260507181803 15 292 0.0 3.2 0.00 0.00 0.00 83 1015.0
20260507180903 16 292 1.6 3.2 0.00 0.00 0.00 77 1014.5
20260507180217 16 292 0.0 3.2 0.00 0.00 0.00 76 1014.8
20260507175403 17 279 0.0 3.2 0.00 0.00 0.00 75 1014.8
20260507174503 18 279 0.0 3.2 0.00 0.00 0.00 67 1014.5
20260507173818 19 273 0.0 3.2 0.00 0.00 0.00 69 1014.5
20260507172917 18 278 1.6 3.2 0.00 0.00 0.00 69 1014.5
20260507171803 18 268 0.0 3.2 0.00 0.00 0.00 72 1014.8
20260507170903 17 313 3.2 3.2 0.00 0.00 0.00 72 1014.8
20260507170003 17 25 0.0 3.2 0.00 0.20 0.00 73 1014.8
20260507165403 17 7 0.0 3.2 0.00 0.33 0.00 75 1014.5
20260507164503 18 292 0.0 3.2 0.00 0.33 0.00 73 1014.6
20260507163603 18 287 0.0 6.4 0.00 0.33 0.00 73 1014.8
20260507162917 17 285 3.2 6.4 0.00 0.33 0.00 73 1014.7
20260507161803 17 252 1.6 6.4 0.00 0.33 0.00 73 1014.7
20260507160903 17 255 1.6 6.4 0.00 0.33 0.00 71 1014.5
20260507160003 18 262 3.2 9.7 0.00 0.33 0.00 69 1014.9
20260507155403 18 272 3.2 9.7 0.00 0.33 0.00 65 1014.7
20260507154503 18 283 3.2 11.3 0.00 0.33 0.00 64 1014.7
20260507153603 18 265 4.8 17.7 0.00 0.33 0.00 60 1014.6
20260507152703 20 252 1.6 11.3 0.00 0.33 0.00 58 1014.5
20260507151803 21 269 4.8 14.5 0.00 0.33 0.00 53 1014.3
20260507150903 21 261 6.4 14.5 0.00 0.33 0.00 57 1014.0
20260507150003 21 254 4.8 14.5 0.00 0.33 0.00 60 1013.6
20260507145403 22 241 4.8 11.3 0.00 0.33 0.00 58 1013.6
20260507144503 22 234 3.2 11.3 0.00 0.33 0.00 57 1013.5
20260507143818 22 248 4.8 11.3 0.00 0.33 0.00 53 1013.5
20260507142703 22 219 3.2 11.3 0.00 0.33 0.00 57 1013.2
20260507141803 23 257 3.2 14.5 0.00 0.33 0.00 49 1013.3
20260507140903 23 245 6.4 12.9 0.00 0.33 0.00 50 1013.5
20260507140003 23 260 3.2 14.5 0.00 0.33 0.00 49 1013.8
20260507135617 22 274 6.4 14.5 0.00 0.33 0.00 52 1013.3
20260507134503 23 255 4.8 11.3 0.00 0.33 0.00 54 1013.6
20260507133603 23 221 3.2 11.3 0.00 0.33 0.00 53 1013.5
20260507132703 22 177 3.2 17.7 0.00 0.33 0.00 63 1013.7
20260507131803 22 253 3.2 11.3 0.00 0.33 0.00 61 1013.7
20260507130903 22 253 3.2 11.3 0.00 0.33 0.00 61 1013.6
20260507130217 22 236 3.2 9.7 0.00 0.33 0.00 63 1013.7
20260507125403 23 247 3.2 11.3 0.00 0.33 0.00 66 1013.8
20260507124503 22 242 3.2 11.3 0.00 0.33 0.00 63 1013.9
20260507123603 22 223 4.8 9.7 0.00 0.33 0.00 62 1013.8
20260507122705 22 221 3.2 9.7 0.00 0.33 0.00 65 1013.7
20260507121803 22 252 6.4 17.7 0.00 0.33 0.00 62 1013.8
20260507121118 21 252 6.4 12.9 0.00 0.33 0.00 63 1013.8
20260507120003 22 237 6.4 12.9 0.00 0.33 0.00 64 1013.9
20260507115403 22 223 3.2 12.9 0.00 0.33 0.00 65 1013.8
20260507114503 22 226 3.2 9.7 0.00 0.33 0.00 64 1013.8
20260507113603 21 248 4.8 14.5 0.00 0.33 0.00 66 1013.9
20260507112703 21 271 6.4 14.5 0.00 0.33 0.00 66 1013.8
20260507112018 21 264 6.4 11.3 0.00 0.33 0.00 65 1014.2
20260507110903 22 245 4.8 12.9 0.00 0.33 0.00 63 1014.0
20260507110003 22 227 3.2 11.3 0.00 0.33 0.00 66 1014.2
20260507105403 22 245 4.8 17.7 0.00 0.33 0.00 66 1014.2
20260507104503 21 267 9.7 17.7 0.00 0.33 0.00 64 1013.9
20260507103603 21 259 6.4 11.3 0.00 0.33 0.00 67 1014.3
20260507102703 22 237 3.2 11.3 0.00 0.33 0.00 64 1014.2
20260507101803 21 265 6.4 14.5 0.00 0.33 0.00 68 1014.2
20260507100903 21 245 4.8 14.5 0.00 0.33 0.00 68 1014.5
20260507100003 21 251 3.2 12.9 0.00 0.33 0.00 72 1014.1
20260507095403 21 243 3.2 12.9 0.00 0.33 0.00 69 1014.1
20260507094503 21 238 4.8 12.9 0.00 0.33 0.00 71 1014.1
20260507093603 21 251 4.8 11.3 0.00 0.36 0.00 70 1014.1
20260507092703 20 195 3.2 17.7 0.00 0.36 0.00 72 1014.1
20260507091803 20 179 3.2 14.5 0.00 0.48 0.00 70 1014.0
20260507090903 20 194 6.4 22.5 0.00 0.51 0.00 72 1014.0
20260507090218 20 210 6.4 14.5 0.00 0.56 0.00 71 1014.2
20260507085403 20 182 3.2 17.7 0.00 0.61 0.00 72 1013.9
20260507084503 20 244 3.2 17.7 0.00 0.64 0.00 71 1014.0
20260507083603 20 242 3.2 9.7 0.00 0.76 0.00 72 1014.0
20260507082703 20 236 3.2 17.7 0.00 0.86 0.00 71 1013.8
20260507081803 20 230 4.8 12.9 0.00 0.97 0.00 73 1013.8
20260507080903 19 239 1.6 6.4 0.00 1.02 0.00 78 1013.8
20260507080004 18 181 1.6 9.7 0.00 1.12 0.00 79 1013.8
20260507075403 18 202 1.6 9.7 0.00 1.17 0.00 77 1013.9
20260507074503 18 267 3.2 6.4 0.00 1.27 0.00 81 1013.7
20260507073603 17 259 0.0 6.4 0.00 1.30 0.00 85 1013.7
20260507072703 17 177 3.2 9.7 0.00 1.37 0.00 83 1013.6
20260507071803 18 125 3.2 11.3 0.00 1.47 0.00 80 1013.5
20260507070903 17 88 4.8 9.7 0.00 1.55 0.00 82 1013.5
20260507070006 17 96 3.2 9.7 0.00 1.63 0.00 82 1013.4
20260507065403 18 96 3.2 6.4 0.00 1.63 0.00 83 1013.3
20260507064503 17 94 3.2 9.7 0.00 1.75 0.00 83 1013.5
20260507063603 17 116 4.8 11.3 0.00 1.83 0.00 84 1013.2
20260507062703 17 101 3.2 6.4 0.00 1.98 0.00 84 1013.3
20260507061803 17 101 1.6 6.4 0.00 2.01 0.00 85 1013.2
20260507060903 17 107 1.6 3.2 0.00 2.01 0.00 87 1013.3
20260507060217 16 94 1.6 3.2 0.00 2.01 0.00 87 1013.2
20260507055403 16 90 0.0 3.2 0.00 2.01 0.00 88 1013.3
20260507054718 16 89 3.2 3.2 0.00 2.01 0.00 88 1013.2
20260507053603 15 58 0.0 3.2 0.00 2.01 0.00 93 1012.9
20260507052703 15 87 1.6 3.2 0.00 2.06 0.00 95 1012.9
20260507052018 14 86 1.6 3.2 0.00 2.13 0.00 95 1013.1
20260507051117 13 71 0.0 3.2 0.00 2.13 0.00 95 1012.9
20260507050003 13 97 0.0 3.2 0.00 2.13 0.00 95 1012.9
20260507045403 13 84 0.0 3.2 0.00 2.13 0.00 95 1012.8
20260507044503 13 72 1.6 3.2 0.00 2.13 0.00 95 1012.5
20260507043818 13 72 1.6 3.2 0.00 2.13 0.00 95 1012.5
20260507042703 13 94 0.0 3.2 0.00 2.13 0.00 95 1012.5
20260507041803 13 68 3.2 3.2 0.00 2.13 0.00 95 1012.4
20260507040903 13 95 0.0 3.2 0.00 2.13 0.00 95 1012.5
20260507040003 13 319 0.0 3.2 0.00 2.13 0.00 94 1012.3
20260507035403 13 41 1.6 3.2 0.00 2.13 0.00 94 1012.1
20260507034503 13 84 0.0 3.2 0.00 2.13 0.00 93 1012.4
20260507033603 14 85 1.6 3.2 0.00 2.13 0.00 93 1012.2
20260507032703 14 139 3.2 3.2 0.00 2.13 0.00 92 1012.4
20260507031803 15 39 1.6 6.4 0.00 2.13 0.00 91 1012.6
20260507031118 15 50 3.2 6.4 0.00 2.13 0.00 91 1012.5
20260507030004 15 23 1.6 3.2 0.00 2.13 0.00 91 1012.3
20260507025403 15 42 0.0 3.2 0.00 2.13 0.00 90 1012.2
20260507024503 15 80 1.6 6.4 0.00 2.13 0.00 92 1012.3
20260507023603 14 45 0.0 3.2 0.00 2.13 0.00 92 1012.2
20260507022703 15 86 3.2 6.4 0.00 2.13 0.00 91 1012.3
20260507021803 15 105 0.0 3.2 0.00 2.13 0.00 90 1012.4
20260507020903 15 81 1.6 3.2 0.00 2.13 0.00 90 1012.3
20260507020003 15 74 1.6 3.2 0.00 2.13 0.00 89 1012.4
20260507015403 15 85 0.0 3.2 0.00 2.13 0.00 90 1012.5
20260507014718 15 100 3.2 6.4 0.00 2.13 0.00 90 1012.3
20260507013817 15 54 3.2 9.7 0.00 2.13 0.00 90 1012.4
20260507012703 15 71 3.2 6.4 0.00 2.13 0.00 89 1012.2
20260507011803 15 74 3.2 11.3 0.00 2.13 0.00 90 1012.2
20260507010903 15 60 0.0 3.2 0.00 2.13 0.00 91 1012.4
20260507010004 14 7 1.6 3.2 0.00 2.13 0.00 91 1012.3
20260507005403 14 84 1.6 6.4 0.00 2.13 0.00 91 1012.3
20260507004503 14 101 3.2 6.4 0.00 2.13 0.00 90 1012.2
20260507003603 15 70 3.2 6.4 0.00 2.13 0.00 90 1012.5
20260507002703 15 99 0.0 3.2 0.00 2.13 0.00 89 1012.1
20260507001803 15 85 3.2 3.2 0.00 2.13 0.00 89 1012.1
20260507000903 14 55 1.6 3.2 0.00 2.13 0.00 90 1012.3